Voltar ao catálogo

COSMOS 1275 DEB

AtivoPO
NORAD 12662·DEBRIS·🇷🇺 Russia

Lançado Jun 4, 1981 de Plesetsk Cosmodrome

Loading…

Próximas Passagens (próximas 24 horas)

TLE

AtualizadoSource: Space-Track

Época: Sep 14, 2026, 11:48 UTC

1 12662U 81053S   26257.49207301  .00000150  00000-0  13330-3 0  9991
2 12662  82.9594 155.0345 0022870 124.3655  48.4452 13.78215779267039

Acompanhe COSMOS 1275 DEB em tempo real com AllMySat

Download on the App Store